CW8668 Weather Reports


time (UTC)temp
C
wind
direction
speed
KPH
gust
KPH
rain 1hr
cm
rain 24hr
cm
rain mn
cm
humidity
%
barometer
mb
20260506163016 14 113 6.4 16.1 0.00 0.43 0.00 50 1007.6
20260506161516 15 113 4.8 16.1 0.00 0.43 0.00 47 1007.5
20260506160016 14 135 9.7 30.6 0.00 0.43 0.00 48 1007.6
20260506154516 14 203 12.9 38.6 0.00 0.43 0.00 48 1007.7
20260506153016 14 135 9.7 20.9 0.00 0.43 0.00 48 1007.5
20260506151515 15 248 8.0 27.4 0.00 0.43 0.00 47 1007.3
20260506150016 15 203 8.0 22.5 0.00 0.43 0.00 45 1007.5
20260506144516 15 248 9.7 27.4 0.00 0.43 0.00 44 1007.6
20260506143016 15 248 8.0 20.9 0.00 0.46 0.00 44 1007.7
20260506141516 15 203 8.0 20.9 0.00 0.48 0.00 47 1007.7
20260506140016 14 180 6.4 22.5 0.00 0.53 0.00 50 1007.9
20260506134515 15 203 6.4 20.9 0.00 0.58 0.00 49 1007.9
20260506133016 14 180 9.7 22.5 0.00 0.61 0.00 52 1008.0
20260506131516 13 203 9.7 22.5 0.00 0.61 0.00 54 1008.3
20260506130016 13 158 8.0 25.7 0.00 0.61 0.00 54 1008.5
20260506124516 14 225 1.6 9.7 0.00 0.61 0.00 52 1008.4
20260506123015 13 293 3.2 12.9 0.00 0.61 0.00 55 1008.4
20260506121515 13 135 4.8 14.5 0.00 0.61 0.00 55 1008.4
20260506120016 13 113 8.0 17.7 0.00 0.61 0.00 55 1008.5
20260506114515 13 135 9.7 17.7 0.00 0.61 0.00 59 1008.5
20260506113016 13 45 9.7 20.9 0.00 0.61 0.00 58 1008.7
20260506111516 13 45 9.7 20.9 0.00 0.61 0.00 60 1008.6
20260506110016 12 45 12.9 27.4 0.00 0.61 0.00 63 1008.9
20260506104515 11 45 16.1 27.4 0.00 0.61 0.00 65 1008.8
20260506103015 11 45 16.1 29.0 0.00 0.61 0.00 67 1008.9
20260506101516 11 45 17.7 29.0 0.00 0.61 0.00 67 1009.0
20260506100015 11 45 17.7 29.0 0.00 0.61 0.00 69 1008.9
20260506094515 11 45 16.1 27.4 0.00 0.61 0.00 70 1008.8
20260506093016 10 203 3.2 12.9 0.00 0.61 0.00 74 1008.7
20260506091515 10 203 4.8 11.3 0.00 0.61 0.00 78 1008.6
20260506090015 8 203 6.4 16.1 0.00 0.61 0.00 80 1008.6
20260506084517 8 225 6.4 17.7 0.00 0.61 0.00 81 1008.6
20260506083017 8 248 6.4 17.7 0.00 0.61 0.00 83 1008.5
20260506081517 8 225 6.4 17.7 0.00 0.61 0.00 85 1008.5
20260506073017 7 225 3.2 11.3 0.00 0.61 0.00 91 1008.5
20260506071520 6 203 3.2 9.7 0.00 0.61 0.00 92 1008.6
20260506061517 5 45 1.6 4.8 0.00 0.61 0.00 92 1008.4
20260506044517 5 45 1.6 4.8 0.00 0.61 0.00 92 1007.6
20260506043057 5 45 1.6 8.0 0.00 0.61 0.00 92 1007.4
20260506041517 5 45 1.6 4.8 0.00 0.61 0.00 92 1007.4
20260506040016 6 45 1.6 4.8 0.00 0.61 0.00 91 1006.6
20260506034536 6 0.0 3.2 0.00 0.61 0.00 91 1006.6
20260506033017 6 68 1.6 8.0 0.00 0.61 0.00 91 1006.6
20260506031517 6 135 1.6 8.0 0.00 0.61 0.00 92 1006.6
20260506030037 6 23 1.6 4.8 0.00 0.61 0.00 91 1007.0
20260506024516 6 45 1.6 4.8 0.00 0.61 0.00 91 1007.0
20260506023016 6 0.0 3.2 0.00 0.61 0.00 91 1007.2
20260506021517 6 23 1.6 4.8 0.00 0.61 0.00 91 1007.2
20260506020016 6 0.0 3.2 0.00 0.61 0.00 92 1007.1
20260506014517 6 23 1.6 4.8 0.00 0.61 0.00 92 1007.0
20260506013016 6 45 1.6 4.8 0.00 0.61 0.00 92 1007.0
20260506011536 6 0.0 3.2 0.00 0.61 0.00 92 1007.1
20260506010016 6 0.0 3.2 0.00 0.61 0.00 92 1006.9
20260506004516 7 0.0 3.2 0.00 0.61 0.00 92 1006.7
20260506003017 7 0.0 3.2 0.00 0.61 0.00 92 1006.7
20260506001536 7 0.0 1.6 0.00 0.61 0.00 92 1006.8
20260506000016 7 0.0 1.6 0.00 0.61 0.61 92 1007.0
20260505234517 7 0.0 1.6 0.00 0.61 0.61 91 1006.9
20260505233016 7 0.0 3.2 0.00 0.61 0.61 91 1007.0
20260505231536 7 0.0 1.6 0.00 0.61 0.61 90 1007.1
20260505230016 7 0.0 1.6 0.00 0.61 0.61 90 1007.1
20260505224537 7 0.0 3.2 0.00 0.61 0.61 90 1006.9
20260505223017 7 0.0 3.2 0.00 0.61 0.61 90 1007.2
20260505221516 7 23 1.6 4.8 0.00 0.61 0.61 90 1007.4
20260505220036 7 0.0 4.8 0.00 0.61 0.61 90 1007.8
20260505214516 7 68 1.6 4.8 0.00 0.61 0.61 90 1007.9
20260505213016 8 23 1.6 4.8 0.00 0.61 0.61 90 1007.8
20260505211537 8 45 1.6 4.8 0.00 0.61 0.61 90 1007.7
20260505210036 8 0.0 4.8 0.00 0.61 0.61 90 1008.2
20260505204516 8 0.0 1.6 0.00 0.64 0.61 90 1008.1
20260505203016 8 0.0 4.8 0.00 0.74 0.61 89 1007.9
20260505201516 8 0.0 3.2 0.00 0.86 0.61 89 1007.5
20260505200036 8 0.0 1.6 0.00 0.86 0.61 88 1008.1
20260505194516 8 0.0 1.6 0.00 0.86 0.61 88 1007.8
20260505193016 9 248 1.6 4.8 0.00 0.86 0.61 87 1007.9
20260505191516 9 23 1.6 4.8 0.00 0.86 0.61 86 1007.8
20260505190036 9 23 4.8 9.7 0.00 0.86 0.61 86 1007.7
20260505184516 9 23 3.2 8.0 0.00 0.86 0.61 85 1007.6
20260505183016 9 23 3.2 9.7 0.00 0.86 0.61 84 1007.5
20260505181516 9 23 3.2 9.7 0.03 0.86 0.61 84 1007.5
20260505180016 9 23 4.8 11.3 0.23 0.86 0.61 83 1007.8
20260505174536 9 23 1.6 4.8 0.41 0.86 0.61 83 1007.8
20260505173016 9 158 1.6 4.8 0.43 0.86 0.61 82 1007.7
20260505171515 9 248 6.4 29.0 0.41 0.84 0.58 81 1008.1
20260505170036 10 248 17.7 40.2 0.20 0.64 0.38 76 1008.3
20260505164515 13 180 3.2 33.8 0.03 0.46 0.20 73 1007.1